Vinton, IA

4:13 AM CDT on September 23, 2017 (GMT -0500)
Vinton-Veterans Memorial

Weather History for KVTI - February, 2013

Change the Weather History Date:

Tuesday, February 5, 2013

  Actual Average Record
Temperature  
Mean Temperature 24 °F -  
Max Temperature 34 °F 28 °F 54 °F (1990)
Min Temperature 15 °F 9 °F -23 °F (1979)
Degree Days  
Heating Degree Days 40    
Moisture  
Dew Point 19 °F    
Average Humidity 78    
Maximum Humidity 85    
Minimum Humidity 66    
Precipitation  
Precipitation 0.00 in - - ()
Sea Level Pressure  
Sea Level Pressure 29.91 in    
Wind  
Wind Speed 9 mph (West)    
Max Wind Speed 18 mph    
Max Gust Speed 24 mph    
Visibility 9 miles    
Events Snow    
Averages and records for this station are not official NWS values.
T = Trace of Precipitation, MM = Missing Value Source: NWS Daily Summary

Daily Weather History Graph

Daily Weather History Graph

Search for Another Location

Airport or City:

Trip Planner

Search our weather history database for the weather conditions in past years. The results will help you decide how hot, cold, wet, or windy it might be!

Date:

Astronomy

Feb. 05, 2013 Rise Set
Actual Time 7:16 AM CST 5:28 PM CST
Civil Twilight 6:47 AM CST 5:57 PM CST
Nautical Twilight 6:14 AM CST 6:30 PM CST
Astronomical Twilight 5:41 AM CST 7:03 PM CST
Moon 3:00 AM CST (2/5) 12:43 PM CST (2/5)
Length of Visible Light 11h 10m
Length of Day
10h 11m
Waning Crescent, 26% of the Moon is Illuminated
Feb 5
Waning Crescent
Feb 10
New
Feb 17
First Quarter
Feb 25
Full
Mar 4
Last Quarter

Hourly Weather History & Observations

Time (CST) Temp. Windchill Dew Point Humidity Pressure Visibility Wind Dir Wind Speed Gust Speed Precip Events Conditions
12:15 AM 15.3 °F 7.9 °F 10.8 °F 82% 29.94 in 10.0 mi South 4.6 mph - N/A   Clear
12:35 AM 15.3 °F 6.6 °F 10.9 °F 83% 29.92 in 10.0 mi South 5.8 mph - N/A   Clear
12:55 AM 15.4 °F 8.1 °F 10.8 °F 82% 29.91 in 10.0 mi SSW 4.6 mph - N/A   Clear
1:15 AM 17.6 °F 9.3 °F 13.1 °F 83% 29.91 in 10.0 mi SSW 5.8 mph - N/A   Clear
1:35 AM 17.6 °F 6.4 °F 12.9 °F 82% 29.91 in 10.0 mi SSW 9.2 mph - N/A   Clear
1:55 AM 17.6 °F 9.3 °F 13.1 °F 83% 29.90 in 5.0 mi South 5.8 mph - N/A Snow Light Snow
2:15 AM 17.6 °F 9.3 °F 13.1 °F 83% 29.89 in 7.0 mi SSW 5.8 mph - N/A   Mostly Cloudy
2:35 AM 17.6 °F 8.2 °F 13.1 °F 83% 29.88 in 4.0 mi South 6.9 mph - N/A Snow Light Snow
2:55 AM 17.6 °F 5.0 °F 13.1 °F 83% 29.87 in 7.0 mi South 11.5 mph - N/A   Scattered Clouds
3:15 AM 17.6 °F 5.7 °F 13.1 °F 83% 29.86 in 10.0 mi South 10.4 mph - N/A   Scattered Clouds
3:35 AM 17.6 °F 5.0 °F 13.1 °F 83% 29.85 in 10.0 mi South 11.5 mph - N/A   Mostly Cloudy
3:55 AM 17.6 °F 6.4 °F 13.1 °F 83% 29.84 in 10.0 mi South 9.2 mph - N/A   Scattered Clouds
4:15 AM 17.6 °F 7.3 °F 13.6 °F 84% 29.84 in 10.0 mi South 8.1 mph - N/A   Clear
4:35 AM 17.6 °F 7.3 °F 13.5 °F 84% 29.84 in 10.0 mi South 8.1 mph - N/A   Clear
4:55 AM 18.1 °F 8.9 °F 14.0 °F 84% 29.83 in 10.0 mi South 6.9 mph - N/A   Clear
5:15 AM 18.5 °F 7.5 °F 14.4 °F 84% 29.81 in 10.0 mi South 9.2 mph - N/A   Clear
5:35 AM 19.0 °F 7.5 °F 14.7 °F 83% 29.81 in 7.0 mi South 10.4 mph - N/A   Clear
5:55 AM 19.0 °F 9.0 °F 14.5 °F 83% 29.81 in 10.0 mi South 8.1 mph - N/A   Clear
6:15 AM 19.0 °F 11.1 °F 14.7 °F 83% 29.81 in 10.0 mi SSW 5.8 mph - N/A   Clear
6:35 AM 18.5 °F 6.8 °F 14.4 °F 84% 29.81 in 10.0 mi South 10.4 mph - N/A   Clear
6:55 AM 17.6 °F 6.4 °F 13.8 °F 85% 29.81 in 7.0 mi South 9.2 mph - N/A   Clear
7:15 AM 17.6 °F 6.4 °F 13.8 °F 85% 29.80 in 7.0 mi South 9.2 mph - N/A   Clear
7:35 AM 17.6 °F 8.2 °F 13.8 °F 85% 29.81 in 7.0 mi SSW 6.9 mph - N/A   Clear
7:55 AM 17.6 °F 5.7 °F 13.6 °F 84% 29.80 in 7.0 mi SSW 10.4 mph - N/A   Clear
8:15 AM 18.1 °F 7.1 °F 13.8 °F 83% 29.81 in 7.0 mi SSW 9.2 mph - N/A   Clear
8:35 AM 19.0 °F 9.0 °F 14.7 °F 83% 29.80 in 7.0 mi SSW 8.1 mph - N/A   Clear
8:55 AM 20.3 °F 11.5 °F 15.4 °F 81% 29.81 in 7.0 mi SW 6.9 mph - N/A   Clear
9:15 AM 21.6 °F 10.6 °F 16.5 °F 81% 29.79 in 7.0 mi SSW 10.4 mph - N/A   Clear
9:35 AM 23.0 °F 13.1 °F 17.6 °F 80% 29.81 in 7.0 mi WSW 9.2 mph - N/A   Clear
9:55 AM 25.2 °F 15.1 °F 19.2 °F 78% 29.80 in 7.0 mi West 10.4 mph - N/A   Clear
10:15 AM 27.5 °F 17.4 °F 21.4 °F 78% 29.81 in 10.0 mi WSW 11.5 mph - N/A   Clear
10:35 AM 27.5 °F 18.0 °F 20.8 °F 76% 29.82 in 10.0 mi West 10.4 mph - N/A   Clear
10:55 AM 29.3 °F 20.8 °F 22.8 °F 77% 29.83 in 7.0 mi WNW 9.2 mph - N/A   Scattered Clouds
11:15 AM 29.8 °F 18.9 °F 23.4 °F 77% 29.84 in 10.0 mi WNW 15.0 mph - N/A   Overcast
11:35 AM 28.9 °F 19.8 °F 23.4 °F 80% 29.85 in 7.0 mi WNW 10.4 mph - N/A   Mostly Cloudy
11:55 AM 30.2 °F 20.8 °F 24.6 °F 80% 29.85 in 7.0 mi WNW 11.5 mph - N/A   Mostly Cloudy
12:15 PM 32.4 °F 22.5 °F 26.4 °F 79% 29.85 in 7.0 mi NW 13.8 mph 18.4 mph N/A   Mostly Cloudy
12:35 PM 32.4 °F 23.0 °F 26.1 °F 78% 29.85 in 7.0 mi WNW 12.7 mph 21.9 mph N/A   Scattered Clouds
12:55 PM 32.5 °F 22.7 °F 25.9 °F 76% 29.85 in 10.0 mi WNW 13.8 mph - N/A   Scattered Clouds
1:15 PM 34.9 °F 24.6 °F 27.1 °F 73% 29.86 in 10.0 mi NW 17.3 mph 20.7 mph N/A   Clear
1:35 PM 34.9 °F 25.7 °F 26.4 °F 71% 29.87 in 10.0 mi NW 13.8 mph 18.4 mph N/A   Scattered Clouds
1:55 PM 34.9 °F 25.3 °F 24.6 °F 66% 29.87 in 10.0 mi NNW 15.0 mph 23.0 mph N/A   Scattered Clouds
2:15 PM 34.9 °F 27.1 °F 24.8 °F 67% 29.88 in 10.0 mi NNW 10.4 mph - N/A   Scattered Clouds
2:35 PM 34.9 °F 27.7 °F 25.3 °F 68% 29.89 in 10.0 mi NW 9.2 mph 16.1 mph N/A   Overcast
2:55 PM 34.9 °F 29.0 °F 25.5 °F 69% 29.91 in 10.0 mi NW 6.9 mph - N/A   Mostly Cloudy
3:15 PM 34.9 °F 24.2 °F 25.3 °F 68% 29.92 in 10.0 mi WNW 18.4 mph 21.9 mph N/A   Overcast
3:35 PM 34.9 °F 26.2 °F 26.1 °F 70% 29.93 in 10.0 mi WNW 12.7 mph - N/A   Overcast
3:55 PM 34.9 °F 25.7 °F 25.9 °F 70% 29.94 in 10.0 mi WNW 13.8 mph 23.0 mph N/A   Overcast
4:15 PM 34.9 °F 25.7 °F 26.2 °F 71% 29.95 in 10.0 mi NW 13.8 mph 21.9 mph N/A   Overcast
4:35 PM 34.5 °F 24.5 °F 25.2 °F 69% 29.96 in 10.0 mi NW 16.1 mph 24.2 mph N/A   Overcast
4:55 PM 33.8 °F 23.9 °F 24.8 °F 70% 29.96 in 10.0 mi NW 15.0 mph 19.6 mph N/A   Overcast
5:15 PM 32.9 °F 22.8 °F 25.2 °F 73% 29.97 in 10.0 mi NW 15.0 mph - N/A   Overcast
5:35 PM 32.4 °F 21.7 °F 23.4 °F 69% 29.98 in 10.0 mi NW 16.1 mph 23.0 mph N/A   Overcast
5:55 PM 32.4 °F 23.5 °F 23.7 °F 70% 29.99 in 10.0 mi NW 11.5 mph 18.4 mph N/A   Mostly Cloudy
6:15 PM 32.4 °F 24.0 °F 25.0 °F 74% 30.00 in 10.0 mi NW 10.4 mph 17.3 mph N/A   Mostly Cloudy
6:35 PM 32.4 °F 23.0 °F 24.4 °F 73% 30.00 in 10.0 mi NNW 12.7 mph 19.6 mph N/A   Mostly Cloudy
6:55 PM 32.4 °F 25.3 °F 24.8 °F 74% 30.01 in 10.0 mi NNW 8.1 mph - N/A   Scattered Clouds
7:15 PM 32.4 °F 26.0 °F 25.5 °F 76% 30.01 in 10.0 mi NW 6.9 mph - N/A   Mostly Cloudy
7:35 PM 31.6 °F 24.4 °F 24.1 °F 74% 30.02 in 10.0 mi North 8.1 mph 18.4 mph N/A   Scattered Clouds
7:55 PM 30.2 °F 21.3 °F 22.6 °F 73% 30.03 in 10.0 mi NNW 10.4 mph - N/A   Clear
8:15 PM 27.5 °F 19.3 °F 19.9 °F 73% 30.04 in 10.0 mi NNW 8.1 mph - N/A   Clear
8:35 PM 27.5 °F 18.6 °F 21.0 °F 77% 30.05 in 10.0 mi North 9.2 mph - N/A   Clear
8:55 PM 27.5 °F 18.0 °F 20.7 °F 75% 30.06 in 10.0 mi NNW 10.4 mph - N/A   Clear
9:15 PM 27.5 °F 19.3 °F 21.0 °F 77% 30.08 in 10.0 mi NNW 8.1 mph - N/A   Clear
9:35 PM 25.2 °F 16.5 °F 18.5 °F 76% 30.08 in 10.0 mi NNW 8.1 mph - N/A   Clear
9:55 PM 25.2 °F 17.3 °F 19.0 °F 78% 30.08 in 10.0 mi NNW 6.9 mph - N/A   Clear
10:15 PM 25.0 °F 18.1 °F 19.2 °F 79% 30.09 in 10.0 mi NW 5.8 mph - N/A   Clear
10:35 PM 22.6 °F 15.3 °F 17.6 °F 81% 30.10 in 10.0 mi NNW 5.8 mph - N/A   Clear
10:55 PM 22.6 °F 15.3 °F 17.6 °F 81% 30.11 in 10.0 mi NNW 5.8 mph - N/A   Clear
11:15 PM 21.6 °F 16.8 °F 17.1 °F 83% 30.11 in 10.0 mi NW 3.5 mph - N/A   Clear
11:35 PM 19.4 °F 12.8 °F 15.6 °F 85% 30.12 in 7.0 mi NW 4.6 mph - N/A   Clear
11:55 PM 20.3 °F 13.8 °F 16.5 °F 85% 30.12 in 10.0 mi NNW 4.6 mph - N/A   Clear